Location: Newark
(27.9675°N, 86.8869°E)
Time: 05:27:33
(UTC+00:00)

SR - Pass Details

Date: 27 October 2019
Orbit: 574 x 882 km, 66.7° (Epoch: 11 November)

Event Time Altitude Azimuth Distance (km) Brightness Sun altitude
Rises 01:30:31 0° 312° (NW) 3,478 ? 14.0°
Reaches altitude 10° 01:34:01 10° 292° (WNW) 2,522 ? 14.7°
Maximum altitude 01:37:25 16° 257° (WSW) 2,097 ? 15.4°
Drops below altitude 10° 01:40:45 10° 221° (SW) 2,451 ? 16.0°
Sets 01:44:06 0° 200° (SSW) 3,330 ? 16.7°
